(126090) = 2001 YC97 = 2004 NP6

Discovered at Socorro on 2001-12-17 by LINEAR.

Orbit

Orbit type: Main Belt

Note: WebGL enabled browser required.

epoch2024-03-31.0
epoch JD2460400.5
perihelion date2021-12-24.67791
perihelion JD2459573.17791
argument of perihelion (°)232.54917
ascending node (°)86.20471
inclination (°)4.93362
eccentricity0.1920475
perihelion distance (AU)1.8583638
Tisserand w.r.t. Jupiter3.6
ΔV w.r.t. Earth (km/sec)8.6
semimajor axis (AU)2.3000905
mean anomaly (°)233.75508
mean daily motion (°/day)0.28254420
aphelion distance (AU)2.742
period (years)3.49
P-vector [x]0.74894964
P-vector [y]-0.57755454
P-vector [z]-0.32481563
Q-vector [x]0.65704687
Q-vector [y]0.71077945
Q-vector [z]0.25116129
absolute magnitude16.8
phase slope0.15
uncertainty0
referenceMPEC 2024-F14
observations used1268
oppositions17
arc length (days)8134
first opposition used2001
last opposition used2024
residual rms (arc-secs)0.57
perturbers coarse indicatorM-v
perturbers precise indicator003Ek
first observation date used2001-12-09.0
last observation date used2024-03-17.0
computer nameMPCLINUX
JD of orbit computation2456877.713589
perihelion JD uncertainty (days)2.9399E-05
argument of perihelion uncertainty (°)3.5745E-05
ascending node uncertainty (°)3.4894E-05
inclination uncertainty (°)3.0262E-06
eccentricity uncertainty 2.8379E-08
perihelion distance uncertainty (AU)6.8944E-08
Minimum Orbit Intersection Distances (in AU)
for orbit epoch: 2460400.5, reference: E2024-GH2
Mercury1.43286
Venus1.13034
Earth0.84981
Mars0.46924
Jupiter2.54824
Saturn6.3964
Uranus15.7372
Neptune27.4446

Observations

1291 total observations over interval: 2001 12 09.21805 – 2024 03 17.390050
These data are available for download (format description).

Date (UT) J2000 RA J2000 Dec Magn Location Ref
2001 12 09.21805 04 29 02.15 +19 42 41.1 19.7   644 – Palomar Mountain/NEAT MPS 57259
2001 12 09.28990 04 28 57.15 +19 42 41.2 19.9   644 – Palomar Mountain/NEAT MPS 57259
2001 12 09.36557 04 28 51.86 +19 42 40.8 19.5   644 – Palomar Mountain/NEAT MPS 57259
2001 12 17.22124 04 20 32.33 +19 42 56.5 19.1   704 – Lincoln Laboratory ETS, New Mexico MPS 47152
2001 12 17.23677 04 20 31.35 +19 42 57.6 19.7   704 – Lincoln Laboratory ETS, New Mexico MPS 47152
2001 12 17.25205 04 20 30.41 +19 42 57.1 19.4   704 – Lincoln Laboratory ETS, New Mexico MPS 47152
2001 12 17.26714 04 20 29.50 +19 42 57.2 19.4   704 – Lincoln Laboratory ETS, New Mexico MPS 47152
2001 12 17.28224 04 20 28.56 +19 42 57.1 19.2   704 – Lincoln Laboratory ETS, New Mexico MPS 47152
2001 12 20.24008 04 17 41.28 +19 43 30.7 20.1   704 – Lincoln Laboratory ETS, New Mexico MPS 47152
2001 12 20.25533 04 17 40.41 +19 43 30.4 20.3   704 – Lincoln Laboratory ETS, New Mexico MPS 47152
2001 12 20.27056 04 17 39.55 +19 43 30.8 20.0   704 – Lincoln Laboratory ETS, New Mexico MPS 47152
2001 12 20.28634 04 17 38.70 +19 43 30.2 20.3   704 – Lincoln Laboratory ETS, New Mexico MPS 47152
2001 12 23.15703 04 15 09.73 +19 44 27.5 20.1 V 691 – Steward Observatory, Kitt Peak-Spacewatch MPS 47152
2001 12 23.17960 04 15 08.57 +19 44 28.0 20.1 V 691 – Steward Observatory, Kitt Peak-Spacewatch MPS 47152
2001 12 23.20213 04 15 07.42 +19 44 28.6 20.9 V 691 – Steward Observatory, Kitt Peak-Spacewatch MPS 47152
2003 03 10.37576 11 22 33.25 +12 28 04.5 19.9   644 – Palomar Mountain/NEAT MPS 111835
2003 03 10.43871 11 22 29.44 +12 28 28.9 20.1   644 – Palomar Mountain/NEAT MPS 111835
2003 03 10.50161 11 22 25.63 +12 28 52.9 20.8   644 – Palomar Mountain/NEAT MPS 111835
2003 03 26.14678 11 07 32.43 +13 54 43.3 20.3 V 691 – Steward Observatory, Kitt Peak-Spacewatch MPS 111835
2003 03 26.17290 11 07 31.04 +13 54 49.4 20.3 V 691 – Steward Observatory, Kitt Peak-Spacewatch MPS 111835
2003 03 26.19924 11 07 29.60 +13 54 56.7 20.4 V 691 – Steward Observatory, Kitt Peak-Spacewatch MPS 111835
2003 03 30.269120 11 04 03.832 +14 10 45.33 20.63 V 645 – Apache Point-Sloan Digital Sky Survey MPS 136939
2003 03 30.272592 11 04 03.665 +14 10 46.02 21.50   645 – Apache Point-Sloan Digital Sky Survey MPS 136939
2004 07 11.33541 23 08 28.42 -12 42 56.3 19.3   704 – Lincoln Laboratory ETS, New Mexico MPS 110380
2004 07 11.34600 23 08 28.82 -12 42 57.3 19.5   704 – Lincoln Laboratory ETS, New Mexico MPS 110380
2004 07 11.35641 23 08 29.17 -12 42 58.8 19.7   704 – Lincoln Laboratory ETS, New Mexico MPS 110380
2004 07 15.35769 23 10 43.19 -12 51 55.9 19.6   704 – Lincoln Laboratory ETS, New Mexico MPS 110380
2004 07 15.36831 23 10 43.52 -12 51 57.5 19.3   704 – Lincoln Laboratory ETS, New Mexico MPS 110380
2004 07 15.37904 23 10 43.81 -12 51 59.5 19.5   704 – Lincoln Laboratory ETS, New Mexico MPS 110380
2004 08 08.29691 23 12 31.16 -14 52 36.7 18.1   704 – Lincoln Laboratory ETS, New Mexico MPS 111137
2004 08 08.30624 23 12 30.93 -14 52 40.1 18.3   704 – Lincoln Laboratory ETS, New Mexico MPS 111137
2004 08 08.31569 23 12 30.71 -14 52 44.6 18.3   704 – Lincoln Laboratory ETS, New Mexico MPS 111137
2004 08 08.32509 23 12 30.47 -14 52 48.8 18.5   704 – Lincoln Laboratory ETS, New Mexico MPS 111137
2004 08 08.33443 23 12 30.25 -14 52 52.2 18.0   704 – Lincoln Laboratory ETS, New Mexico MPS 111137
2004 08 08.38683 23 12 29.08 -14 53 14.4 17.8 R 699 – Lowell Observatory-LONEOS MPS 111137
2004 08 08.39656 23 12 28.79 -14 53 18.3   699 – Lowell Observatory-LONEOS MPS 111137
2004 08 08.40628 23 12 28.57 -14 53 23.2   699 – Lowell Observatory-LONEOS MPS 111137
2004 08 08.41600 23 12 28.36 -14 53 26.6   699 – Lowell Observatory-LONEOS MPS 111137
2004 08 21.59538 23 05 17.19 -16 30 00.7 18.7 R E12 – Siding Spring Survey MPS 112203
2004 08 21.61050 23 05 16.50 -16 30 07.4 18.3 R E12 – Siding Spring Survey MPS 112203
2004 08 21.62559 23 05 15.80 -16 30 14.3 18.5 R E12 – Siding Spring Survey MPS 112203
2004 08 21.64060 23 05 15.10 -16 30 21.3 18.7 R E12 – Siding Spring Survey MPS 112203
2004 09 17.23694 22 44 15.39 -18 48 41.7 17.9 R 699 – Lowell Observatory-LONEOS MPS 114283
2004 09 17.24911 22 44 14.78 -18 48 42.5   699 – Lowell Observatory-LONEOS MPS 114283
2004 09 17.26128 22 44 14.25 -18 48 45.1   699 – Lowell Observatory-LONEOS MPS 114283
2004 09 17.27344 22 44 13.78 -18 48 46.1   699 – Lowell Observatory-LONEOS MPS 114283
2004 09 21.22288 22 41 45.48 -18 54 26.6 18.8   704 – Lincoln Laboratory ETS, New Mexico MPS 114283
2004 09 21.23484 22 41 45.03 -18 54 27.1 19.1   704 – Lincoln Laboratory ETS, New Mexico MPS 114283
2004 09 21.24679 22 41 44.56 -18 54 27.9 19.1   704 – Lincoln Laboratory ETS, New Mexico MPS 114283
2004 09 21.25904 22 41 44.11 -18 54 28.5 19.1   704 – Lincoln Laboratory ETS, New Mexico MPS 114283
2004 09 21.27104 22 41 43.62 -18 54 29.4 19.1   704 – Lincoln Laboratory ETS, New Mexico MPS 114283
2004 10 09.16532 22 36 20.09 -18 25 15.6 18.8   644 – Palomar Mountain/NEAT MPS 116546
2004 10 09.18593 22 36 20.01 -18 25 10.9 18.5   644 – Palomar Mountain/NEAT MPS 116546
2004 10 09.20718 22 36 19.94 -18 25 05.8 18.4   644 – Palomar Mountain/NEAT MPS 116546
2004 10 14.15409 22 36 42.53 -18 02 47.4 18.5 R 699 – Lowell Observatory-LONEOS MPS 119254
2004 10 14.17196 22 36 42.53 -18 02 42.9   699 – Lowell Observatory-LONEOS MPS 119254
2004 10 14.18981 22 36 42.68 -18 02 36.7   699 – Lowell Observatory-LONEOS MPS 119254
2004 10 14.20769 22 36 42.79 -18 02 30.0   699 – Lowell Observatory-LONEOS MPS 119254
2005 12 27.41538 08 51 31.35 +21 34 23.6 21.6 V G96 – Mt. Lemmon Survey MPS 156490
2005 12 27.42346 08 51 31.10 +21 34 25.7 20.8 V G96 – Mt. Lemmon Survey MPS 156490
2005 12 27.43153 08 51 30.78 +21 34 28.0 20.5 V G96 – Mt. Lemmon Survey MPS 156490
2005 12 27.43962 08 51 30.52 +21 34 30.3 20.5 V G96 – Mt. Lemmon Survey MPS 156490
2005 12 29.39227 08 50 09.30 +21 44 21.5   691 – Steward Observatory, Kitt Peak-Spacewatch MPS 156490
2005 12 29.40957 08 50 08.52 +21 44 26.4   691 – Steward Observatory, Kitt Peak-Spacewatch MPS 156490
2005 12 29.42694 08 50 07.74 +21 44 31.5   691 – Steward Observatory, Kitt Peak-Spacewatch MPS 156490
2006 01 22.12092 08 27 21.56 +23 52 32.7 20.5 V 691 – Steward Observatory, Kitt Peak-Spacewatch MPS 160322
2006 01 22.13819 08 27 20.45 +23 52 38.0 20.0 V 691 – Steward Observatory, Kitt Peak-Spacewatch MPS 160322
2006 01 22.15546 08 27 19.23 +23 52 43.7 20.5 V 691 – Steward Observatory, Kitt Peak-Spacewatch MPS 160322
2006 02 02.32034 08 15 02.23 +24 44 15.1 19.2 V 703 – Catalina Sky Survey MPS 161691
2006 02 02.32775 08 15 01.44 +24 44 16.1 19.1 V 703 – Catalina Sky Survey MPS 161691
2006 02 02.33519 08 15 01.18 +24 44 17.0 18.7 V 703 – Catalina Sky Survey MPS 161691
2006 02 02.34263 08 15 00.61 +24 44 21.5 20.4 V 703 – Catalina Sky Survey MPS 161691
2006 02 06.11412 08 11 06.21 +24 58 40.2   691 – Steward Observatory, Kitt Peak-Spacewatch MPS 162731
2006 02 06.13146 08 11 05.14 +24 58 43.6   691 – Steward Observatory, Kitt Peak-Spacewatch MPS 162731
2006 02 06.14873 08 11 04.08 +24 58 48.0   691 – Steward Observatory, Kitt Peak-Spacewatch MPS 162731
2007 04 28.32537 15 14 54.92 -11 54 30.8 19.7 V 691 – Steward Observatory, Kitt Peak-Spacewatch MPS 208727
2007 04 28.34297 15 14 53.88 -11 54 27.8 19.9 V 691 – Steward Observatory, Kitt Peak-Spacewatch MPS 208727
2007 04 28.36057 15 14 52.84 -11 54 25.0 19.7 V 691 – Steward Observatory, Kitt Peak-Spacewatch MPS 208728
2007 05 07.32504 15 05 51.50 -11 29 41.1 19.3 V 703 – Catalina Sky Survey MPS 210001
2007 05 07.33421 15 05 50.96 -11 29 40.8 18.7 V 703 – Catalina Sky Survey MPS 210001
2007 05 07.34339 15 05 50.28 -11 29 38.6 19.0 V 703 – Catalina Sky Survey MPS 210001
2007 05 07.35258 15 05 49.74 -11 29 36.5 19.2 V 703 – Catalina Sky Survey MPS 210001
2007 05 09.29520 15 03 46.34 -11 24 31.8 18.5 R 699 – Lowell Observatory-LONEOS MPS 210001
2007 05 09.31166 15 03 45.36 -11 24 31.9   699 – Lowell Observatory-LONEOS MPS 210001
2007 05 09.32812 15 03 44.31 -11 24 30.6   699 – Lowell Observatory-LONEOS MPS 210001
2007 05 09.34458 15 03 43.05 -11 24 25.6   699 – Lowell Observatory-LONEOS MPS 210001
